Hourly Weather Roundup
Issued by NWS Central Illinois

Home | Current Version | Previous Version | Text Only | Print | Product List | Glossary On
Versions: 1 2 3 4 5 6 7 8 9 10 11 12 13 14 15 16 17 18 19 20 21 22 23 24 25 26 27 28 29 30 31 32 33 34 35 36 37 38 39 40 41 42 43 44 45 46 47 48 49 50
000
NZUS43 KILX 100610
HWRILX

Area Weather Roundup
National Weather Service Lincoln IL
1200 AM CST SUN DEC 10 2017

NOTE:  "FAIR" indicates few or no clouds below 12,000 feet, with
       no sigificant weather and/or obstructions to visibility.


CITY           SKY/WX    TMP DP  RH WIND       PRES   REMARKS
Bloomington    CLEAR     20  13  74 W7        30.12S WCI  11
6HR MIN TEMP:  19; 6HR MAX TEMP:  25;

Champaign      CLEAR     18  13  80 W7        30.13S WCI   9
6HR MIN TEMP:  17; 6HR MAX TEMP:  26;

Danville       CLEAR     18  12  80 W5        30.10R WCI  11
6HR MIN TEMP:  18; 6HR MAX TEMP:  26;

Decatur        CLEAR     23  14  68 W9        30.15S WCI  13
6HR MIN TEMP:  23; 6HR MAX TEMP:  27;

Effingham      CLEAR     24  18  77 W8        30.19S WCI  15
6HR MIN TEMP:  23; 6HR MAX TEMP:  30;

Flora          PTCLDY    25  18  72 W6        30.20S WCI  18
6HR MIN TEMP:  25; 6HR MAX TEMP:  33;

Galesburg      PTCLDY    20  16  83 SW6       30.12F WCI  13
6HR MIN TEMP:  19; 6HR MAX TEMP:  24;

Jacksonville   PTCLDY    20  14  75 SW6       30.17S WCI  13
6HR MIN TEMP:  19; 6HR MAX TEMP:  26;

Lacon          PTCLDY    21  14  73 SW6       30.11F WCI  14
6HR MIN TEMP:  17; 6HR MAX TEMP:  24;

Lawrenceville  PTCLDY    22  14  71 W6        30.18F WCI  14
6HR MIN TEMP:  20; 6HR MAX TEMP:  31;

Litchfield     CLEAR     21  15  79 W6        30.19S WCI  13
6HR MIN TEMP:  21; 6HR MAX TEMP:  29;

$$


CITY           SKY/WX    TMP DP  RH WIND       PRES   REMARKS
Lincoln        CLEAR     24  16  71 W3        30.16S
6HR MIN TEMP:  24; 6HR MAX TEMP:  28;

Macomb         CLOUDY    19  14  81 SW6       30.16F WCI  11
6HR MIN TEMP:  19; 6HR MAX TEMP:  24;

Mattoon        CLEAR     21  15  78 W5        30.15R WCI  15
6HR MIN TEMP:  20; 6HR MAX TEMP:  26;

Mt Carmel AP   PTCLDY    22  15  74 W6        30.19S WCI  15
6HR MIN TEMP:  21; 6HR MAX TEMP:  31;

Olney-Noble AP CLEAR     24  14  67 W6        30.20S WCI  17
Paris AP       PTCLDY    20  15  81 SW8       30.15R WCI  10
6HR MIN TEMP:  19; 6HR MAX TEMP:  28;

Peoria         CLOUDY    20  13  74 W5        30.14S WCI  13
6HR MIN TEMP:  19; 6HR MAX TEMP:  26;

Pontiac        CLOUDY    17  14  85 SW8       30.11F WCI   7
6HR MIN TEMP:  16; 6HR MAX TEMP:  25;

Rantoul        PTCLDY    21  16  79 W5        30.12S WCI  15
6HR MIN TEMP:  21; 6HR MAX TEMP:  28;

Robinson       PTCLDY    20  15  81 SW7       30.18F WCI  11
6HR MIN TEMP:  17; 6HR MAX TEMP:  28;

Springfield    CLEAR     19  13  77 W7        30.17S WCI  10
6HR MIN TEMP:  18; 6HR MAX TEMP:  28;

Taylorville    CLEAR     20  15  78 W7        30.17S WCI  11
6HR MIN TEMP:  20; 6HR MAX TEMP:  28;

$$

...REGIONAL REPORTS...


CITY           SKY/WX    TMP DP  RH WIND       PRES   REMARKS
Chicago O`Hare CLOUDY    20  12  71 W6        30.04F WCI  12
Kankakee       PTCLDY    17  12  80 W5        30.09F WCI  10
Moline         CLOUDY    23  15  71 SW7       30.09F WCI  15
Mount Sterling CLOUDY    22  15  75 SW6       30.15F WCI  14
Mount Vernon   PTCLDY    24  17  74 W3        30.22S
Pittsfield     PTCLDY    22  15  77 SW3       30.19S
Quincy         CLOUDY    19  14  81 SW7       30.15S WCI  10
Rockford       CLOUDY    19  12  74 SW5       30.07F WCI  12
$$


CITY           SKY/WX    TMP DP  RH WIND       PRES   REMARKS
Burlington     CLOUDY    18  13  80 SW7       30.12F WCI   9
Cedar Rapids   PTCLDY    18  13  80 S7        30.05F WCI   9
Des Moines     CLOUDY    21  14  74 S8        30.05F WCI  11
Kirksville     CLOUDY    20  15  81 SW7       30.13F WCI  11
Ottumwa        CLOUDY    19  13  77 S7        30.09F WCI  10
St Louis       CLEAR     24  16  71 SW5       30.21F WCI  18
$$


CITY           SKY/WX    TMP DP  RH WIND       PRES   REMARKS
Terre Haute    CLOUDY    22  14  71 W5        30.15S WCI  16
Evansville     CLEAR     23  17  78 SW5       30.21F WCI  17
Indianapolis   PTCLDY    22  14  71 W8        30.10S WCI  12
Lafayette      CLEAR     19  14  81 SW6       30.11S WCI  11
Madison        MOCLDY    19  10  68 VRB3      29.98F
Milwaukee      PTCLDY    19  10  68 W6        30.00F WCI  11
$$





USA.gov is the U.S. government's official web portal to all federal, state and local government web resources and services.